Overview Statistics Trail Chart Weather Telemetry Raw packets
 

This is the latest recevied weather packets stored in our database for station/object W6MAF. If no packets are shown the sender has not sent any weather packets the latest 10 day(s).

<< 77 78 79 80 81 82 83 >>
Time Temp. Humidity Pressure Rain* Wind** Luminosity Snow
1788109557 27.22° C 14% - 0 mm 6.26 m/s, 221° - -
1788109259 26.67° C 15% - 0 mm 4.47 m/s, 222° - -
1788108962 26.67° C 16% - 0 mm 4.92 m/s, 221° - -
1788108679 26.67° C 17% - 0 mm 4.92 m/s, 233° - -
1788108367 26.67° C 18% - 0 mm 4.02 m/s, 205° - -
1788108069 26.11° C 18% - 0 mm 6.26 m/s, 239° - -
1788107768 26.11° C 19% - 0 mm 6.26 m/s, 219° - -
1788107470 25.56° C 20% - 0 mm 6.71 m/s, 205° - -
1788107172 25.56° C 21% - 0 mm 5.36 m/s, 235° - -
1788106875 25° C 22% - 0 mm 6.26 m/s, 228° - -
1788106577 25° C 23% - 0 mm 5.36 m/s, 191° - -
1788106279 25° C 24% - 0 mm 5.81 m/s, 231° - -
1788105978 25° C 25% - 0 mm 5.81 m/s, 231° - -
1788105681 24.44° C 26% - 0 mm 6.26 m/s, 233° - -
1788105383 24.44° C 28% - 0 mm 4.92 m/s, 207° - -
1788105085 23.89° C 28% - 0 mm 4.02 m/s, 229° - -
1788104788 23.89° C 29% - 0 mm 5.36 m/s, 235° - -
1788104490 23.33° C 30% - 0 mm 4.02 m/s, 218° - -
1788104189 23.33° C 31% - 0 mm 4.92 m/s, 219° - -
1788103891 22.78° C 32% - 0 mm 3.13 m/s, 212° - -
1788103594 22.78° C 33% - 0 mm 5.36 m/s, 190° - -
1788103296 22.22° C 35% - 0 mm 4.47 m/s, 177° - -
1788103000 22.22° C 37% - 0 mm 5.36 m/s, 288° - -
1788102701 21.67° C 38% - 0 mm 5.36 m/s, 225° - -
1788102400 21.11° C 40% - 0 mm 4.92 m/s, 222° - -

* Rain latest hour (hover to see other rain measurements)
** Current wind speed in m/s (hover to see current wind gust speed)